Total_Precipitation_Accumulation
0.67 0.54 0.95 0.96 0.80 0.71 0.68 0.71 0.69 0.69 0.70 0.64 0.59 0.50 0.40 0.36 0.31 0.32 0.32 0.30 0.28 0.27 0.27 0.31 0.31 0.33 0.29 0.31 0.37 0.42 0.52 0.59 0.50 0.45 0.45 0.46 0.45 0.57 0.80 0.94 0.98 1.09 0.92
0.56 0.51 0.93 0.96 0.80 0.71 0.71 0.75 0.73 0.71 0.70 0.66 0.60 0.52 0.46 0.38 0.36 0.35 0.29 0.29 0.25 0.26 0.26 0.29 0.33 0.32 0.29 0.34 0.40 0.48 0.55 0.59 0.56 0.55 0.66 0.73 0.65 0.69 0.80 0.89 0.97 1.04 0.89
0.58 0.53 0.68 0.89 0.88 0.80 0.74 0.74 0.75 0.75 0.74 0.75 0.70 0.59 0.53 0.45 0.39 0.35 0.30 0.27 0.27 0.28 0.31 0.33 0.36 0.31 0.33 0.38 0.44 0.51 0.54 0.62 0.69 0.75 0.98 1.36 1.01 0.74 0.74 0.81 0.75 0.76 0.80
0.55 0.56 0.71 0.97 0.98 0.91 0.86 0.88 0.88 0.81 0.75 0.77 0.72 0.65 0.58 0.52 0.45 0.46 0.44 0.34 0.31 0.32 0.34 0.33 0.32 0.33 0.38 0.45 0.48 0.47 0.50 0.65 0.80 0.80 1.00 1.30 1.26 0.92 0.88 0.95 0.86 0.81 0.82
0.58 0.56 0.79 1.04 0.96 0.91 0.95 1.05 1.04 0.96 0.85 0.78 0.76 0.74 0.67 0.61 0.60 0.64 0.54 0.46 0.42 0.42 0.44 0.46 0.43 0.42 0.49 0.55 0.53 0.51 0.59 0.75 0.83 0.74 0.88 1.08 1.47 1.24 0.97 1.05 1.03 0.88 0.81
0.47 0.48 0.74 1.08 0.99 0.94 0.97 1.12 1.03 0.95 0.94 0.86 0.85 0.84 0.81 0.75 0.76 0.74 0.68 0.65 0.59 0.57 0.55 0.57 0.56 0.54 0.58 0.59 0.57 0.62 0.77 0.84 0.78 0.93 0.99 1.05 1.35 1.27 0.98 0.95 0.90 0.84 0.83
0.48 0.46 0.63 0.97 0.96 0.88 0.91 1.01 0.99 0.97 1.01 0.93 0.88 0.89 0.88 0.86 0.87 0.89 0.86 0.78 0.75 0.73 0.70 0.68 0.63 0.55 0.55 0.61 0.63 0.70 0.83 0.77 0.78 1.04 0.99 1.17 1.22 1.12 0.91 0.86 0.82 0.86 0.96
0.60 0.49 0.52 0.79 0.81 0.81 0.89 0.94 0.98 0.96 0.93 0.84 0.85 0.90 0.90 0.89 0.93 0.95 0.95 0.88 0.84 0.82 0.83 0.82 0.77 0.66 0.61 0.63 0.68 0.70 0.78 0.69 0.59 0.83 0.94 1.15 1.27 1.20 0.89 0.80 0.86 0.86 1.02
0.93 0.76 0.66 0.64 0.64 0.72 0.87 0.93 1.08 1.12 0.96 0.83 0.81 0.80 0.79 0.80 0.84 0.89 0.91 0.86 0.82 0.85 0.85 0.83 0.80 0.75 0.73 0.71 0.69 0.69 0.74 0.72 0.67 0.74 0.75 1.07 1.22 1.17 0.91 0.80 0.80 0.86 1.03
0.90 0.87 0.82 0.82 0.77 0.78 0.81 0.98 1.25 1.38 1.20 0.94 0.83 0.78 0.79 0.74 0.73 0.81 0.77 0.79 0.81 0.89 0.92 0.92 0.88 0.80 0.83 0.83 0.79 0.76 0.76 0.62 0.52 0.56 0.66 0.85 1.14 1.12 0.99 0.82 0.73 0.74 0.90
0.83 0.84 0.82 0.85 0.89 1.01 1.01 1.07 1.33 1.49 1.46 1.09 0.89 0.87 0.77 0.61 0.74 0.78 0.64 0.78 0.85 0.96 0.99 1.02 0.95 0.88 0.93 0.90 0.87 0.88 0.71 0.46 0.48 0.56 0.70 0.86 1.16 1.25 1.08 0.85 0.75 0.73 0.70
0.71 0.71 0.73 0.75 0.74 0.80 0.86 1.18 1.39 1.31 1.38 1.11 1.05 0.97 0.88 0.89 0.92 0.79 0.69 0.81 0.95 1.06 1.02 1.02 1.03 0.97 0.87 0.69 0.67 0.71 0.49 0.39 0.43 0.48 0.58 0.83 1.22 1.40 1.19 0.92 0.76 0.70 0.61
0.57 0.51 0.48 0.52 0.53 0.58 0.67 0.85 1.13 1.39 1.44 1.40 1.34 1.25 1.17 1.06 0.88 0.77 0.76 0.75 0.85 0.94 0.88 0.95 0.94 0.82 0.74 0.66 0.65 0.57 0.45 0.43 0.45 0.45 0.60 0.81 1.13 1.35 1.21 0.95 0.74 0.66 0.65
0.57 0.57 0.48 0.42 0.46 0.46 0.50 0.64 0.88 1.11 1.26 1.28 1.19 1.10 1.27 1.20 0.96 0.85 0.92 0.93 0.89 0.93 1.02 1.05 0.97 0.89 0.80 0.72 0.71 0.63 0.57 0.56 0.52 0.52 0.70 0.69 0.91 1.14 1.24 1.09 0.87 0.73 0.72
0.57 0.62 0.56 0.43 0.37 0.42 0.45 0.51 0.60 0.84 1.00 1.00 1.13 1.09 1.13 1.11 0.97 0.88 0.88 1.02 0.97 0.97 1.07 1.15 1.02 0.93 0.93 0.90 0.85 0.80 0.75 0.69 0.67 0.58 0.63 0.66 0.75 0.95 1.27 1.31 1.13 0.87 0.88
0.51 0.53 0.54 0.49 0.47 0.46 0.44 0.44 0.49 0.54 0.71 0.74 0.75 0.74 0.94 1.04 1.02 1.03 0.92 1.00 1.13 1.15 1.11 1.09 1.06 0.96 0.91 0.93 0.90 0.90 0.87 0.71 0.70 0.69 0.69 0.67 0.59 0.63 0.98 1.31 1.27 1.09 1.10
0.44 0.44 0.48 0.54 0.59 0.57 0.57 0.57 0.54 0.55 0.58 0.65 0.72 0.73 0.86 0.96 1.03 1.04 0.92 0.95 1.08 1.25 1.21 1.13 1.05 1.01 0.86 0.81 0.89 0.93 0.93 0.81 0.76 0.82 0.74 0.74 0.60 0.57 0.77 1.20 1.43 1.30 1.30
0.34 0.33 0.39 0.45 0.52 0.58 0.62 0.66 0.62 0.66 0.67 0.65 0.70 0.68 0.73 0.88 1.04 1.12 1.03 0.98 1.13 1.30 1.44 1.46 1.27 1.17 1.02 0.92 0.96 0.94 0.89 0.91 0.87 0.81 0.79 0.83 0.77 0.66 0.70 0.87 1.20 1.47 1.52
0.27 0.26 0.29 0.34 0.41 0.48 0.57 0.65 0.67 0.69 0.83 0.91 0.79 0.65 0.72 0.85 0.96 1.17 1.24 1.19 1.22 1.37 1.41 1.43 1.40 1.22 1.16 1.11 0.99 0.93 0.85 0.87 0.91 0.76 0.78 0.83 0.87 0.78 0.78 0.65 0.72 0.92 1.22
0.24 0.23 0.25 0.31 0.33 0.36 0.47 0.64 0.73 0.70 0.80 1.01 1.05 1.01 1.05 1.12 1.18 1.34 1.42 1.40 1.40 1.45 1.41 1.51 1.65 1.41 1.23 1.25 1.15 1.00 0.89 0.84 0.84 0.79 0.82 0.83 0.89 0.88 0.84 0.70 0.63 0.50 0.68
0.18 0.19 0.24 0.29 0.32 0.34 0.42 0.53 0.62 0.72 0.90 1.11 1.17 1.22 1.35 1.37 1.40 1.54 1.63 1.65 1.58 1.48 1.51 1.67 1.99 1.86 1.49 1.33 1.36 1.23 1.02 0.89 0.91 0.81 0.82 0.91 0.90 0.92 0.99 0.92 0.75 0.66 0.56
0.10 0.12 0.18 0.27 0.36 0.42 0.48 0.62 0.77 1.00 1.11 1.25 1.40 1.39 1.41 1.46 1.49 1.57 1.78 1.88 1.81 1.76 1.84 1.84 2.03 2.15 1.91 1.68 1.62 1.77 1.54 1.28 0.93 0.73 0.77 0.84 0.92 1.00 0.98 1.03 0.95 0.83 0.77
0.09 0.11 0.18 0.32 0.51 0.72 0.82 1.05 1.33 1.58 1.66 1.58 1.57 1.61 1.59 1.63 1.70 1.66 1.77 1.97 1.93 1.88 1.87 2.03 2.26 2.49 2.44 2.22 1.97 2.03 1.77 1.56 1.41 0.92 0.71 0.79 0.89 1.00 1.01 1.11 1.12 1.01 0.96
0.12 0.22 0.38 0.62 0.92 1.17 1.32 1.52 1.72 1.83 1.87 1.80 1.81 1.79 1.77 1.69 1.62 1.61 1.72 1.93 2.06 2.13 2.16 2.22 2.22 2.47 2.66 2.50 2.41 2.11 1.81 1.67 1.73 1.48 1.01 0.78 0.82 0.89 0.93 0.98 1.08 1.14 1.13
0.40 0.59 0.88 1.13 1.38 1.53 1.58 1.68 1.88 2.03 2.19 2.20 2.08 1.93 1.82 1.78 1.70 1.61 1.66 1.73 1.78 1.85 1.96 2.10 2.17 2.36 2.47 2.58 2.56 2.39 2.15 1.97 1.55 1.50 1.49 1.22 0.98 0.79 0.80 0.93 1.08 1.18 1.19
0.83 1.01 1.22 1.37 1.51 1.51 1.52 1.58 1.71 1.90 2.06 2.08 2.09 2.05 1.92 1.78 1.67 1.58 1.53 1.64 1.66 1.66 1.78 1.90 1.99 2.20 2.34 2.45 2.51 2.39 2.22 2.15 1.91 1.64 1.49 1.45 1.33 1.02 0.84 0.85 0.95 1.06 1.15